VKG1753 LEPA-ESSA

Flight info

Callsign VKG1753
Flight time 2h 40m
Altitude 32000
Route MEROS DCT LAPIT/N0432F340 DCT CHELY/N0424F320 DCT LUMAS/N0430F340 DCT UNANA/N0414F300 DCT STP/N0451F400 DCT RAPED DCT PIGOS DCT EKSID DCT NOSTA DCT NOPMU DCT DESIP DCT ABREG DCT GAMSA/N0455F390 DCT KEMES DCT MILGU DCT BODLA DCT GORPI DCT ARMOD Z228 NILUG
Aircraft A333/H-SDE3GHIJ2J3J5M1RVWXY/LB2D1

Departure

Time 2026-05-07 16:53
Airport Palma de Mallorca Airport (LEPA)

Arrival

Time 2026-05-07 19:34
Airport Stockholm-Arlanda Airport (ESSA)
Time Latitude Longitude Altitude Speed Heading
2026-05-07 16:21 39.54952 2.73777 34 ft 0 kts 238°
2026-05-07 16:41 39.54961 2.73798 32 ft 4 kts 238°
2026-05-07 16:42 39.54975 2.73828 31 ft 4 kts 239°
2026-05-07 16:42 39.54987 2.73854 33 ft 4 kts 236°
2026-05-07 16:42 39.55005 2.73870 30 ft 4 kts 173°
2026-05-07 16:42 39.55029 2.73860 32 ft 2 kts 149°
2026-05-07 16:43 39.55031 2.73858 31 ft 0 kts 148°
2026-05-07 16:45 39.55021 2.73866 31 ft 5 kts 148°
2026-05-07 16:45 39.54982 2.73897 33 ft 8 kts 148°
2026-05-07 16:46 39.54929 2.73938 34 ft 11 kts 148°
2026-05-07 16:46 39.54855 2.73989 34 ft 13 kts 168°
2026-05-07 16:46 39.54772 2.73957 34 ft 13 kts 184°
2026-05-07 16:46 39.54690 2.73909 34 ft 14 kts 231°
2026-05-07 16:47 39.54634 2.73794 34 ft 17 kts 239°
2026-05-07 16:47 39.54569 2.73659 34 ft 19 kts 238°
2026-05-07 16:47 39.54445 2.73395 34 ft 15 kts 238°
2026-05-07 16:48 39.54385 2.73270 34 ft 17 kts 238°
2026-05-07 16:48 39.54321 2.73134 34 ft 13 kts 238°
2026-05-07 16:48 39.54282 2.73053 34 ft 11 kts 238°
2026-05-07 16:48 39.54237 2.72961 34 ft 13 kts 231°
2026-05-07 16:49 39.54182 2.72943 34 ft 0 kts 153°
2026-05-07 16:49 39.54171 2.72958 34 ft 6 kts 131°
2026-05-07 16:49 39.54162 2.72988 34 ft 0 kts 100°
2026-05-07 16:51 39.54162 2.72993 34 ft 3 kts 100°
2026-05-07 16:52 39.54155 2.73048 34 ft 9 kts 98°
2026-05-07 16:52 39.54136 2.73146 34 ft 10 kts 101°
2026-05-07 16:52 39.54150 2.73217 34 ft 0 kts 58°
2026-05-07 16:52 39.54191 2.73307 34 ft 38 kts 59°
2026-05-07 16:53 39.54451 2.73858 34 ft 105 kts 58°
2026-05-07 16:53 39.54939 2.74884 65 ft 159 kts 57°
2026-05-07 16:53 39.55526 2.76125 859 ft 159 kts 59°
2026-05-07 16:53 39.56090 2.77345 1757 ft 160 kts 60°
2026-05-07 16:54 39.56708 2.78685 2207 ft 185 kts 60°
2026-05-07 16:54 39.57402 2.80183 2804 ft 201 kts 60°
2026-05-07 16:54 39.58137 2.81764 3572 ft 206 kts 60°
2026-05-07 16:54 39.58879 2.83355 4434 ft 207 kts 60°
2026-05-07 16:55 39.59632 2.84971 5254 ft 212 kts 60°
2026-05-07 16:55 39.60404 2.86631 6041 ft 217 kts 60°
2026-05-07 16:55 39.61180 2.88297 6825 ft 220 kts 60°
2026-05-07 16:55 39.61969 2.90018 7651 ft 223 kts 62°
2026-05-07 16:56 39.62767 2.91835 8241 ft 243 kts 62°
2026-05-07 16:56 39.63635 2.93848 8705 ft 265 kts 62°
2026-05-07 16:56 39.65485 2.98145 10211 ft 283 kts 62°
2026-05-07 16:57 39.66482 3.00466 10599 ft 305 kts 63°
2026-05-07 16:57 39.67552 3.02958 11018 ft 325 kts 63°
2026-05-07 16:57 39.68671 3.05565 11676 ft 336 kts 63°
2026-05-07 16:57 39.69821 3.08242 12402 ft 343 kts 63°
2026-05-07 16:58 39.70992 3.10971 13180 ft 348 kts 63°
2026-05-07 16:58 39.72180 3.13743 13916 ft 354 kts 63°
2026-05-07 16:58 39.73385 3.16559 14597 ft 359 kts 63°
2026-05-07 16:58 39.74608 3.19419 15249 ft 365 kts 63°
2026-05-07 16:59 39.75846 3.22318 15734 ft 368 kts 63°
2026-05-07 16:59 39.77114 3.25226 15898 ft 370 kts 60°
2026-05-07 16:59 39.78651 3.27920 16106 ft 373 kts 52°
2026-05-07 16:59 39.80350 3.30503 16740 ft 378 kts 51°
2026-05-07 17:00 39.82088 3.33098 17472 ft 382 kts 51°
2026-05-07 17:00 39.83818 3.35682 18119 ft 387 kts 51°
2026-05-07 17:00 39.85597 3.38345 18715 ft 392 kts 51°
2026-05-07 17:00 39.87395 3.41044 19262 ft 397 kts 51°
2026-05-07 17:01 39.89216 3.43781 19815 ft 402 kts 51°
2026-05-07 17:01 39.91058 3.46553 20363 ft 407 kts 51°
2026-05-07 17:01 39.92920 3.49359 20906 ft 412 kts 51°
2026-05-07 17:01 39.94803 3.52198 21435 ft 416 kts 51°
2026-05-07 17:02 39.96710 3.55076 21971 ft 421 kts 51°
2026-05-07 17:02 39.98633 3.57983 22499 ft 426 kts 51°
2026-05-07 17:02 40.00576 3.60922 22984 ft 430 kts 51°
2026-05-07 17:02 40.02542 3.63898 23506 ft 434 kts 51°
2026-05-07 17:03 40.04523 3.66901 23914 ft 439 kts 51°
2026-05-07 17:03 40.06527 3.69941 24298 ft 444 kts 51°
2026-05-07 17:03 40.08552 3.73016 24685 ft 448 kts 51°
2026-05-07 17:03 40.10596 3.76123 25072 ft 453 kts 51°
2026-05-07 17:04 40.12629 3.79217 25448 ft 457 kts 51°
2026-05-07 17:04 40.14706 3.82380 25844 ft 461 kts 51°
2026-05-07 17:04 40.16801 3.85574 26239 ft 464 kts 51°
2026-05-07 17:04 40.18912 3.88797 26629 ft 468 kts 51°
2026-05-07 17:05 40.21042 3.92051 26951 ft 473 kts 51°
2026-05-07 17:05 40.23192 3.95339 27307 ft 478 kts 51°
2026-05-07 17:05 40.25364 3.98665 27681 ft 482 kts 51°
2026-05-07 17:05 40.27555 4.02024 28048 ft 486 kts 51°
2026-05-07 17:06 40.29758 4.05404 28415 ft 490 kts 51°
2026-05-07 17:06 40.31977 4.08813 28784 ft 494 kts 51°
2026-05-07 17:06 40.34212 4.12251 29145 ft 498 kts 51°
2026-05-07 17:06 40.36445 4.15689 29473 ft 502 kts 51°
2026-05-07 17:07 40.38722 4.19182 29798 ft 506 kts 49°
2026-05-07 17:07 40.41263 4.22391 30198 ft 509 kts 39°
2026-05-07 17:07 40.44135 4.25137 30513 ft 512 kts 34°
2026-05-07 17:07 40.47125 4.27725 30815 ft 515 kts 32°
2026-05-07 17:08 40.50180 4.30231 31154 ft 518 kts 31°
2026-05-07 17:08 40.53270 4.32700 31480 ft 521 kts 31°
2026-05-07 17:08 40.56378 4.35164 31793 ft 523 kts 31°
2026-05-07 17:08 40.59504 4.37648 32139 ft 525 kts 31°
2026-05-07 17:09 40.62587 4.40111 32591 ft 524 kts 31°
2026-05-07 17:09 40.65697 4.42611 33050 ft 523 kts 31°
2026-05-07 17:09 40.68802 4.45118 33482 ft 523 kts 32°
2026-05-07 17:09 40.71911 4.47636 33908 ft 523 kts 32°
2026-05-07 17:10 40.75013 4.50155 34259 ft 522 kts 32°
2026-05-07 17:10 40.78108 4.52671 34626 ft 521 kts 31°
2026-05-07 17:10 40.81192 4.55181 35014 ft 520 kts 31°
2026-05-07 17:10 40.84269 4.57689 35363 ft 519 kts 31°
2026-05-07 17:11 40.87343 4.60195 35689 ft 519 kts 31°
2026-05-07 17:11 40.90382 4.62676 36034 ft 518 kts 31°
2026-05-07 17:11 40.93447 4.65181 36377 ft 518 kts 31°
2026-05-07 17:11 40.96522 4.67696 36687 ft 518 kts 31°
2026-05-07 17:12 40.99596 4.70213 36996 ft 518 kts 30°
2026-05-07 17:12 41.02664 4.72728 37312 ft 517 kts 30°
2026-05-07 17:12 41.05724 4.75239 37665 ft 516 kts 30°
2026-05-07 17:12 41.08733 4.77712 38015 ft 515 kts 30°
2026-05-07 17:13 41.11772 4.80212 38335 ft 514 kts 30°
2026-05-07 17:13 41.14810 4.82714 38630 ft 514 kts 30°
2026-05-07 17:13 41.17846 4.85216 38866 ft 513 kts 30°
2026-05-07 17:13 41.20881 4.87721 39092 ft 512 kts 30°
2026-05-07 17:14 41.23911 4.90224 39331 ft 512 kts 30°
2026-05-07 17:14 41.26930 4.92721 39597 ft 511 kts 30°
2026-05-07 17:14 41.29951 4.95223 39834 ft 510 kts 30°
2026-05-07 17:14 41.32964 4.97720 39931 ft 512 kts 30°
2026-05-07 17:15 41.39011 5.02738 39961 ft 520 kts 30°
2026-05-07 17:15 41.45214 5.07897 39972 ft 530 kts 30°
2026-05-07 17:16 41.51496 5.13136 39965 ft 533 kts 30°
2026-05-07 17:16 41.57775 5.18389 39965 ft 532 kts 30°
2026-05-07 17:17 41.64052 5.23650 39951 ft 532 kts 30°
2026-05-07 17:17 41.70329 5.28922 39960 ft 531 kts 30°
2026-05-07 17:18 41.76541 5.34152 39943 ft 531 kts 30°
2026-05-07 17:18 41.82808 5.39441 39959 ft 532 kts 30°
2026-05-07 17:19 41.89070 5.44736 39964 ft 532 kts 30°
2026-05-07 17:19 42.11153 5.63515 39963 ft 530 kts 30°
2026-05-07 17:20 42.36036 5.84863 39958 ft 529 kts 30°
2026-05-07 17:20 42.60587 6.06127 39956 ft 528 kts 30°
2026-05-07 17:21 42.85331 6.27762 39975 ft 529 kts 30°
2026-05-07 17:21 43.09999 6.49542 39959 ft 527 kts 30°
2026-05-07 17:22 43.35400 6.69166 39952 ft 524 kts 24°
2026-05-07 17:22 43.61597 6.86949 39970 ft 523 kts 23°
2026-05-07 17:23 43.87684 7.04783 39978 ft 522 kts 23°
2026-05-07 17:23 44.13694 7.22745 39982 ft 522 kts 23°
2026-05-07 17:24 44.39554 7.40775 39990 ft 519 kts 23°
2026-05-07 17:24 44.65171 7.58815 39964 ft 517 kts 23°
2026-05-07 17:25 44.88043 7.75075 39964 ft 517 kts 24°
2026-05-07 17:25 44.94460 7.79663 39974 ft 517 kts 24°
2026-05-07 17:26 45.00863 7.84252 39965 ft 516 kts 24°
2026-05-07 17:26 45.07221 7.88821 39965 ft 515 kts 24°
2026-05-07 17:27 45.13616 7.93428 39968 ft 515 kts 24°
2026-05-07 17:27 45.19999 7.98038 39964 ft 514 kts 24°
2026-05-07 17:28 45.26371 8.02651 39966 ft 514 kts 24°
2026-05-07 17:28 45.32744 8.07277 39969 ft 513 kts 24°
2026-05-07 17:29 45.39063 8.11876 39963 ft 512 kts 24°
2026-05-07 17:29 45.45414 8.16510 39963 ft 512 kts 24°
2026-05-07 17:30 45.51761 8.21152 39968 ft 512 kts 24°
2026-05-07 17:30 45.58103 8.25802 39972 ft 512 kts 24°
2026-05-07 17:31 45.64442 8.30463 39974 ft 512 kts 24°
2026-05-07 17:31 45.70779 8.35134 39970 ft 511 kts 24°
2026-05-07 17:32 45.77059 8.39775 39971 ft 511 kts 24°
2026-05-07 17:32 45.82353 8.43696 39972 ft 511 kts 24°
2026-05-07 17:33 45.88628 8.48355 39969 ft 511 kts 24°
2026-05-07 17:33 45.94946 8.53057 39974 ft 510 kts 24°
2026-05-07 17:34 46.01259 8.57769 39970 ft 510 kts 25°
2026-05-07 17:34 46.07514 8.62449 39968 ft 510 kts 25°
2026-05-07 17:35 46.13815 8.67175 39969 ft 510 kts 24°
2026-05-07 17:35 46.20109 8.71910 39967 ft 510 kts 24°
2026-05-07 17:36 46.26395 8.76651 39975 ft 509 kts 25°
2026-05-07 17:36 46.32671 8.81393 39977 ft 509 kts 25°
2026-05-07 17:37 46.38940 8.86143 39970 ft 508 kts 25°
2026-05-07 17:37 46.45212 8.90911 39993 ft 509 kts 24°
2026-05-07 17:38 46.51450 8.95665 40001 ft 509 kts 25°
2026-05-07 17:38 46.57737 9.00470 40002 ft 509 kts 25°
2026-05-07 17:39 46.64006 9.05272 40012 ft 509 kts 25°
2026-05-07 17:39 46.70266 9.10075 40016 ft 508 kts 25°
2026-05-07 17:40 46.76478 9.14857 40013 ft 508 kts 25°
2026-05-07 17:40 46.82736 9.19692 40030 ft 508 kts 25°
2026-05-07 17:41 46.88999 9.24541 40033 ft 507 kts 25°
2026-05-07 17:41 46.95207 9.29360 40023 ft 507 kts 25°
2026-05-07 17:42 47.01426 9.34200 40029 ft 507 kts 25°
2026-05-07 17:42 47.07674 9.39074 40024 ft 507 kts 25°
2026-05-07 17:43 47.13899 9.43944 40035 ft 507 kts 25°
2026-05-07 17:43 47.20135 9.48835 40044 ft 507 kts 25°
2026-05-07 17:44 47.26326 9.53706 40024 ft 506 kts 25°
2026-05-07 17:44 47.32551 9.58616 40018 ft 506 kts 25°
2026-05-07 17:45 47.38750 9.63518 40021 ft 507 kts 25°
2026-05-07 17:45 47.45000 9.68229 40019 ft 505 kts 22°
2026-05-07 17:46 47.51365 9.72668 40022 ft 505 kts 22°
2026-05-07 17:46 47.57731 9.77080 40023 ft 505 kts 22°
2026-05-07 17:47 47.64088 9.81540 40023 ft 505 kts 22°
2026-05-07 17:47 47.70411 9.86016 40025 ft 505 kts 22°
2026-05-07 17:48 47.76709 9.90493 40023 ft 505 kts 22°
2026-05-07 17:48 47.83042 9.95006 40038 ft 504 kts 23°
2026-05-07 17:49 47.89376 9.99530 40038 ft 504 kts 23°
2026-05-07 17:49 47.95696 10.04056 40042 ft 504 kts 23°
2026-05-07 17:50 48.02013 10.08592 40051 ft 504 kts 23°
2026-05-07 17:50 48.08314 10.13129 40046 ft 504 kts 23°
2026-05-07 17:51 48.14590 10.17660 40042 ft 503 kts 23°
2026-05-07 17:51 48.20904 10.22232 40031 ft 504 kts 23°
2026-05-07 17:52 48.27210 10.26810 40024 ft 503 kts 23°
2026-05-07 17:52 48.33517 10.31401 40038 ft 503 kts 23°
2026-05-07 17:53 48.39785 10.35977 40046 ft 503 kts 23°
2026-05-07 17:53 48.46093 10.40594 40046 ft 503 kts 24°
2026-05-07 17:54 48.52399 10.45224 40044 ft 504 kts 24°
2026-05-07 17:54 48.58706 10.49866 40046 ft 504 kts 24°
2026-05-07 17:55 48.65015 10.54523 40056 ft 504 kts 24°
2026-05-07 17:55 48.71274 10.59157 40072 ft 504 kts 24°
2026-05-07 17:56 48.77567 10.63828 40070 ft 504 kts 24°
2026-05-07 17:56 48.83860 10.68512 40066 ft 503 kts 24°
2026-05-07 17:57 48.89087 10.72413 40085 ft 503 kts 24°
2026-05-07 17:57 48.96438 10.77915 40077 ft 503 kts 24°
2026-05-07 17:58 49.02720 10.82631 40073 ft 503 kts 24°
2026-05-07 17:58 49.08995 10.87355 40073 ft 503 kts 24°
2026-05-07 17:59 49.15272 10.92094 40069 ft 503 kts 24°
2026-05-07 17:59 49.21550 10.96847 40064 ft 503 kts 24°
2026-05-07 18:00 49.27780 11.01577 40056 ft 503 kts 25°
2026-05-07 18:00 49.34055 11.06356 40051 ft 503 kts 25°
2026-05-07 18:01 49.40326 11.11144 40048 ft 503 kts 25°
2026-05-07 18:01 49.46591 11.15942 40050 ft 503 kts 25°
2026-05-07 18:02 49.55972 11.23190 40046 ft 503 kts 26°
2026-05-07 18:03 49.62128 11.28351 40043 ft 503 kts 27°
2026-05-07 18:03 49.68241 11.33637 40039 ft 503 kts 28°
2026-05-07 18:04 49.74357 11.38921 40045 ft 504 kts 28°
2026-05-07 18:04 49.80450 11.44166 40033 ft 504 kts 27°
2026-05-07 18:05 49.86575 11.49442 40037 ft 504 kts 28°
2026-05-07 18:05 49.92741 11.54766 40038 ft 504 kts 28°
2026-05-07 18:06 49.98826 11.60038 40035 ft 504 kts 28°
2026-05-07 18:06 50.04945 11.65355 40043 ft 504 kts 28°
2026-05-07 18:07 50.11074 11.70698 40041 ft 504 kts 28°
2026-05-07 18:07 50.17180 11.76036 40046 ft 504 kts 28°
2026-05-07 18:08 50.23293 11.81395 40051 ft 504 kts 28°
2026-05-07 18:08 50.29363 11.86733 40048 ft 503 kts 28°
2026-05-07 18:09 50.35469 11.92118 40049 ft 503 kts 28°
2026-05-07 18:09 50.41573 11.97518 40048 ft 503 kts 28°
2026-05-07 18:10 50.47670 12.02929 40055 ft 503 kts 28°
2026-05-07 18:10 50.53780 12.08367 40063 ft 503 kts 28°
2026-05-07 18:11 50.59834 12.13772 40066 ft 503 kts 28°
2026-05-07 18:11 50.65927 12.19228 40066 ft 503 kts 28°
2026-05-07 18:12 50.72012 12.24693 40067 ft 503 kts 28°
2026-05-07 18:12 50.78106 12.30183 40072 ft 504 kts 29°
2026-05-07 18:13 50.84192 12.35682 40075 ft 504 kts 29°
2026-05-07 18:13 50.90279 12.41199 40077 ft 504 kts 29°
2026-05-07 18:14 50.96335 12.46704 40073 ft 503 kts 29°
2026-05-07 18:14 51.02413 12.52246 40069 ft 503 kts 29°
2026-05-07 18:15 51.08488 12.57802 40070 ft 503 kts 29°
2026-05-07 18:15 51.14557 12.63371 40074 ft 503 kts 29°
2026-05-07 18:16 51.20625 12.68954 40072 ft 503 kts 29°
2026-05-07 18:16 51.26682 12.74544 40072 ft 503 kts 29°
2026-05-07 18:17 51.32703 12.80118 40078 ft 503 kts 29°
2026-05-07 18:17 51.38755 12.85738 40080 ft 502 kts 29°
2026-05-07 18:18 51.44809 12.91377 40080 ft 502 kts 29°
2026-05-07 18:18 51.50850 12.97022 40080 ft 502 kts 29°
2026-05-07 18:19 51.56891 13.02671 40082 ft 502 kts 28°
2026-05-07 18:19 51.63060 13.07774 40078 ft 501 kts 25°
2026-05-07 18:20 51.69379 13.12586 40075 ft 501 kts 24°
2026-05-07 18:20 51.75681 13.17407 40075 ft 501 kts 25°
2026-05-07 18:21 51.81961 13.22297 40076 ft 501 kts 25°
2026-05-07 18:21 51.88229 13.27225 40073 ft 501 kts 25°
2026-05-07 18:22 51.93451 13.31349 40078 ft 502 kts 25°
2026-05-07 18:22 51.99735 13.36323 40080 ft 502 kts 25°
2026-05-07 18:23 52.06042 13.41189 40085 ft 501 kts 23°
2026-05-07 18:23 52.12384 13.45771 40090 ft 501 kts 23°
2026-05-07 18:23 52.15581 13.48068 39969 ft 501 kts 23°
2026-05-07 18:24 52.18764 13.50369 39739 ft 501 kts 23°
2026-05-07 18:24 52.21947 13.52687 39306 ft 501 kts 23°
2026-05-07 18:24 52.25129 13.55018 39132 ft 500 kts 23°
2026-05-07 18:25 52.31479 13.59700 39102 ft 501 kts 23°
2026-05-07 18:25 52.37835 13.64407 39102 ft 501 kts 23°
2026-05-07 18:26 52.44181 13.69120 39101 ft 501 kts 24°
2026-05-07 18:26 52.50495 13.73822 39094 ft 501 kts 24°
2026-05-07 18:27 52.56844 13.78565 39089 ft 500 kts 24°
2026-05-07 18:27 52.63191 13.83321 39085 ft 500 kts 24°
2026-05-07 18:28 52.69525 13.88084 39083 ft 500 kts 24°
2026-05-07 18:28 52.75857 13.92862 39091 ft 500 kts 24°
2026-05-07 18:29 52.82188 13.97654 39088 ft 500 kts 24°
2026-05-07 18:29 52.88466 14.02422 39089 ft 500 kts 24°
2026-05-07 18:30 52.94797 14.07245 39092 ft 500 kts 24°
2026-05-07 18:30 53.01121 14.12079 39097 ft 500 kts 24°
2026-05-07 18:31 53.07446 14.16928 39094 ft 500 kts 24°
2026-05-07 18:31 53.13779 14.21800 39094 ft 500 kts 24°
2026-05-07 18:32 53.20046 14.26637 39097 ft 500 kts 24°
2026-05-07 18:32 53.26359 14.31525 39097 ft 500 kts 24°
2026-05-07 18:33 53.32667 14.36425 39099 ft 500 kts 24°
2026-05-07 18:33 53.38975 14.41341 39106 ft 500 kts 24°
2026-05-07 18:34 53.45281 14.46273 39102 ft 500 kts 24°
2026-05-07 18:34 53.51589 14.51222 39105 ft 500 kts 24°
2026-05-07 18:35 53.57853 14.56151 39104 ft 500 kts 24°
2026-05-07 18:35 53.64150 14.61123 39105 ft 500 kts 24°
2026-05-07 18:36 53.70438 14.66105 39106 ft 499 kts 24°
2026-05-07 18:36 53.76728 14.71104 39108 ft 499 kts 24°
2026-05-07 18:37 53.83024 14.76124 39111 ft 499 kts 24°
2026-05-07 18:37 53.89311 14.81155 39116 ft 499 kts 24°
2026-05-07 18:38 53.95549 14.86163 39126 ft 499 kts 24°
2026-05-07 18:38 54.01825 14.91217 39119 ft 500 kts 24°
2026-05-07 18:39 54.08128 14.96311 39122 ft 501 kts 25°
2026-05-07 18:39 54.14427 15.01419 39124 ft 501 kts 25°
2026-05-07 18:40 54.20720 15.06539 39129 ft 500 kts 25°
2026-05-07 18:40 54.26961 15.11633 39129 ft 500 kts 25°
2026-05-07 18:41 54.33244 15.16780 39134 ft 500 kts 25°
2026-05-07 18:41 54.39529 15.21945 39132 ft 500 kts 25°
2026-05-07 18:42 54.45810 15.27125 39132 ft 500 kts 25°
2026-05-07 18:42 54.52083 15.32315 39138 ft 500 kts 25°
2026-05-07 18:43 54.58321 15.37494 39136 ft 500 kts 25°
2026-05-07 18:43 54.64593 15.42720 39134 ft 499 kts 25°
2026-05-07 18:44 54.70852 15.47954 39144 ft 499 kts 25°
2026-05-07 18:44 54.77102 15.53197 39142 ft 499 kts 25°
2026-05-07 18:45 54.83358 15.58462 39142 ft 500 kts 25°
2026-05-07 18:45 54.89610 15.63742 39143 ft 500 kts 24°
2026-05-07 18:46 54.96067 15.68163 39140 ft 499 kts 19°
2026-05-07 18:46 55.02559 15.72197 39143 ft 499 kts 18°
2026-05-07 18:47 55.09121 15.76202 39146 ft 498 kts 18°
2026-05-07 18:47 55.15675 15.80218 39146 ft 498 kts 18°
2026-05-07 18:48 55.22224 15.84260 39145 ft 498 kts 18°
2026-05-07 18:48 55.28722 15.88292 39148 ft 498 kts 18°
2026-05-07 18:49 55.35270 15.92370 39148 ft 499 kts 18°
2026-05-07 18:49 55.41820 15.96463 39148 ft 499 kts 18°
2026-05-07 18:50 55.48362 16.00565 39149 ft 499 kts 18°
2026-05-07 18:50 55.54904 16.04681 39150 ft 499 kts 18°
2026-05-07 18:51 55.61409 16.08789 39151 ft 499 kts 18°
2026-05-07 18:51 55.67950 16.12934 39154 ft 499 kts 18°
2026-05-07 18:52 55.74499 16.17099 39154 ft 499 kts 18°
2026-05-07 18:52 55.81048 16.21279 39151 ft 499 kts 18°
2026-05-07 18:53 55.87538 16.25436 39158 ft 499 kts 18°
2026-05-07 18:53 55.94081 16.29641 39159 ft 499 kts 18°
2026-05-07 18:54 56.00622 16.33859 39159 ft 499 kts 18°
2026-05-07 18:54 56.07160 16.38092 39157 ft 499 kts 18°
2026-05-07 18:55 56.13689 16.42333 39150 ft 499 kts 18°
2026-05-07 18:55 56.20169 16.46558 39151 ft 499 kts 18°
2026-05-07 18:56 56.26692 16.50826 39151 ft 499 kts 18°
2026-05-07 18:56 56.33227 16.55118 39155 ft 499 kts 18°
2026-05-07 18:57 56.39760 16.59356 39153 ft 498 kts 15°
2026-05-07 18:57 56.46415 16.62820 39162 ft 497 kts 14°
2026-05-07 18:58 56.53080 16.66193 39159 ft 497 kts 13°
2026-05-07 18:58 56.59749 16.69552 39159 ft 497 kts 13°
2026-05-07 18:59 56.66366 16.72889 39161 ft 497 kts 13°
2026-05-07 18:59 56.73040 16.76265 39156 ft 497 kts 13°
2026-05-07 19:00 56.79709 16.79651 39176 ft 497 kts 13°
2026-05-07 19:00 56.86374 16.83046 39163 ft 497 kts 13°
2026-05-07 19:01 56.93036 16.86454 39164 ft 497 kts 13°
2026-05-07 19:01 56.99700 16.89874 39163 ft 497 kts 13°
2026-05-07 19:02 57.06352 16.93301 39173 ft 497 kts 13°
2026-05-07 19:02 57.13013 16.96746 39163 ft 496 kts 13°
2026-05-07 19:03 57.19643 17.00187 39163 ft 495 kts 13°
2026-05-07 19:03 57.26236 17.03622 39163 ft 495 kts 13°
2026-05-07 19:04 57.32880 17.07096 39171 ft 495 kts 13°
2026-05-07 19:04 57.39514 17.10579 39162 ft 495 kts 13°
2026-05-07 19:05 57.46154 17.14078 39103 ft 496 kts 13°
2026-05-07 19:05 57.49453 17.15823 38715 ft 491 kts 13°
2026-05-07 19:05 57.52738 17.17562 38016 ft 491 kts 13°
2026-05-07 19:05 57.55999 17.19294 37328 ft 482 kts 13°
2026-05-07 19:06 57.58839 17.20805 36749 ft 473 kts 13°
2026-05-07 19:06 57.65077 17.24131 35477 ft 461 kts 13°
2026-05-07 19:06 57.68165 17.25779 35025 ft 461 kts 13°
2026-05-07 19:07 57.71229 17.27419 34862 ft 457 kts 13°
2026-05-07 19:07 57.74282 17.29054 34623 ft 456 kts 13°
2026-05-07 19:07 57.77326 17.30688 34018 ft 456 kts 13°
2026-05-07 19:07 57.80384 17.32333 33209 ft 457 kts 13°
2026-05-07 19:08 57.83446 17.33983 32578 ft 455 kts 13°
2026-05-07 19:08 57.86497 17.35525 32060 ft 454 kts 11°
2026-05-07 19:08 57.89563 17.36991 31534 ft 456 kts 11°
2026-05-07 19:08 57.92654 17.38468 31033 ft 458 kts 11°
2026-05-07 19:09 57.95754 17.39961 30527 ft 460 kts 11°
2026-05-07 19:09 57.98862 17.41468 30003 ft 461 kts 11°
2026-05-07 19:09 58.01968 17.42981 29413 ft 460 kts 11°
2026-05-07 19:09 58.05018 17.44473 28871 ft 456 kts 11°
2026-05-07 19:10 58.08079 17.45974 28323 ft 452 kts 11°
2026-05-07 19:10 58.11111 17.47464 27783 ft 448 kts 11°
2026-05-07 19:10 58.14114 17.48942 27273 ft 445 kts 11°
2026-05-07 19:10 58.16133 17.49938 26927 ft 442 kts 11°
2026-05-07 19:11 58.20058 17.51875 26248 ft 438 kts 11°
2026-05-07 19:11 58.22009 17.52840 25915 ft 436 kts 11°
2026-05-07 19:11 58.24935 17.54289 25418 ft 433 kts 11°
2026-05-07 19:11 58.27836 17.55728 24908 ft 430 kts 11°
2026-05-07 19:12 58.30717 17.57160 24409 ft 427 kts 11°
2026-05-07 19:12 58.33584 17.58588 23902 ft 422 kts 11°
2026-05-07 19:12 58.36371 17.59983 23312 ft 406 kts 11°
2026-05-07 19:12 58.39057 17.61331 22744 ft 392 kts 10°
2026-05-07 19:13 58.41679 17.62642 22203 ft 388 kts 10°
2026-05-07 19:13 58.44296 17.63948 21689 ft 389 kts 10°
2026-05-07 19:13 58.46909 17.65256 21207 ft 385 kts 10°
2026-05-07 19:13 58.49476 17.66546 20772 ft 380 kts 10°
2026-05-07 19:14 58.52028 17.67829 20211 ft 379 kts 10°
2026-05-07 19:14 58.54580 17.69113 19597 ft 378 kts 11°
2026-05-07 19:14 58.57122 17.70395 19080 ft 376 kts 11°
2026-05-07 19:14 58.59601 17.71649 18647 ft 371 kts 11°
2026-05-07 19:15 58.62083 17.72908 18235 ft 365 kts 11°
2026-05-07 19:15 58.64533 17.74149 17822 ft 363 kts 11°
2026-05-07 19:15 58.66973 17.75388 17547 ft 361 kts 11°
2026-05-07 19:15 58.69398 17.76620 17280 ft 359 kts 11°
2026-05-07 19:16 58.71815 17.77850 17169 ft 358 kts 11°
2026-05-07 19:16 58.74222 17.79077 17169 ft 357 kts 11°
2026-05-07 19:16 58.76592 17.80286 17147 ft 357 kts 11°
2026-05-07 19:16 58.78997 17.81515 17012 ft 357 kts 11°
2026-05-07 19:17 58.81395 17.82743 16883 ft 356 kts 11°
2026-05-07 19:17 58.83788 17.83970 16743 ft 355 kts 11°
2026-05-07 19:17 58.86175 17.85196 16620 ft 354 kts 11°
2026-05-07 19:17 58.88555 17.86420 16495 ft 354 kts 11°
2026-05-07 19:18 58.90934 17.87645 16315 ft 353 kts 11°
2026-05-07 19:18 58.93302 17.88866 16085 ft 352 kts 11°
2026-05-07 19:18 58.95645 17.90077 15891 ft 350 kts 11°
2026-05-07 19:18 58.97993 17.91292 15669 ft 348 kts 11°
2026-05-07 19:19 59.00326 17.92500 15480 ft 347 kts 11°
2026-05-07 19:19 59.02652 17.93707 15277 ft 345 kts 11°
2026-05-07 19:19 59.04966 17.94909 15094 ft 344 kts 11°
2026-05-07 19:19 59.07282 17.96112 14914 ft 343 kts 11°
2026-05-07 19:20 59.09585 17.97311 14737 ft 342 kts 11°
2026-05-07 19:20 59.11883 17.98509 14566 ft 341 kts 11°
2026-05-07 19:20 59.14143 17.99689 14395 ft 340 kts 11°
2026-05-07 19:20 59.16426 18.00882 14223 ft 339 kts 11°
2026-05-07 19:21 59.18699 18.02073 14049 ft 338 kts 11°
2026-05-07 19:21 59.20966 18.03262 13786 ft 337 kts 11°
2026-05-07 19:21 59.23225 18.04448 13437 ft 334 kts 11°
2026-05-07 19:21 59.25460 18.05624 13087 ft 331 kts 11°
2026-05-07 19:22 59.27676 18.06792 12741 ft 329 kts 11°
2026-05-07 19:22 59.29882 18.07954 12388 ft 327 kts 11°
2026-05-07 19:22 59.32071 18.09084 12043 ft 324 kts 10°
2026-05-07 19:22 59.34273 18.09995 11685 ft 322 kts
2026-05-07 19:23 59.36461 18.10825 11302 ft 319 kts
2026-05-07 19:23 59.38611 18.11633 10930 ft 317 kts
2026-05-07 19:23 59.40734 18.12433 10541 ft 304 kts
2026-05-07 19:23 59.42755 18.13146 10190 ft 286 kts
2026-05-07 19:24 59.44693 18.13424 9821 ft 276 kts 358°
2026-05-07 19:24 59.46610 18.13484 9442 ft 275 kts 358°
2026-05-07 19:24 59.48517 18.13505 9063 ft 272 kts 358°
2026-05-07 19:24 59.50403 18.13506 8702 ft 270 kts 358°
2026-05-07 19:25 59.52279 18.13495 8373 ft 269 kts 358°
2026-05-07 19:25 59.54147 18.13471 8047 ft 268 kts 358°
2026-05-07 19:25 59.56016 18.13434 7740 ft 268 kts 358°
2026-05-07 19:25 59.57878 18.13386 7435 ft 267 kts 358°
2026-05-07 19:26 59.59728 18.13324 7134 ft 266 kts 358°
2026-05-07 19:26 59.61577 18.13250 6823 ft 265 kts 358°
2026-05-07 19:26 59.63416 18.13164 6526 ft 264 kts 358°
2026-05-07 19:26 59.65246 18.13067 6298 ft 263 kts 358°
2026-05-07 19:27 59.67077 18.12962 6093 ft 263 kts 358°
2026-05-07 19:27 59.68881 18.12852 5875 ft 263 kts 358°
2026-05-07 19:27 59.70709 18.12733 5622 ft 263 kts 358°
2026-05-07 19:27 59.72535 18.12608 5192 ft 259 kts 358°
2026-05-07 19:28 59.74314 18.12474 4717 ft 252 kts 358°
2026-05-07 19:28 59.76046 18.12330 4236 ft 246 kts 358°
2026-05-07 19:28 59.77742 18.12178 3771 ft 242 kts 358°
2026-05-07 19:28 59.79386 18.11837 3302 ft 238 kts 343°
2026-05-07 19:29 59.80779 18.10152 2849 ft 235 kts 312°
2026-05-07 19:29 59.81484 18.07350 2576 ft 222 kts 278°
2026-05-07 19:29 59.81192 18.04579 2509 ft 198 kts 237°
2026-05-07 19:29 59.80290 18.02616 2509 ft 190 kts 216°
2026-05-07 19:30 59.79167 18.01290 2513 ft 187 kts 202°
2026-05-07 19:30 59.77932 18.00588 2512 ft 183 kts 189°
2026-05-07 19:30 59.76680 18.00172 2517 ft 182 kts 188°
2026-05-07 19:30 59.75435 17.99726 2347 ft 181 kts 189°
2026-05-07 19:31 59.74202 17.99269 2092 ft 180 kts 189°
2026-05-07 19:31 59.72978 17.98824 1828 ft 173 kts 189°
2026-05-07 19:31 59.71856 17.98417 1578 ft 155 kts 189°
2026-05-07 19:31 59.70840 17.98049 1379 ft 141 kts 189°
2026-05-07 19:32 59.69912 17.97712 1186 ft 132 kts 188°
2026-05-07 19:32 59.69002 17.97380 1013 ft 135 kts 188°
2026-05-07 19:32 59.68071 17.97040 815 ft 136 kts 188°
2026-05-07 19:32 59.67150 17.96706 637 ft 134 kts 188°
2026-05-07 19:33 59.66240 17.96375 402 ft 132 kts 188°
2026-05-07 19:33 59.65335 17.96042 236 ft 132 kts 188°
2026-05-07 19:33 59.64450 17.95728 111 ft 122 kts 191°
2026-05-07 19:33 59.63803 17.95498 117 ft 66 kts 189°
2026-05-07 19:34 59.63507 17.95374 123 ft 29 kts 195°
2026-05-07 19:34 59.63384 17.95273 121 ft 14 kts 213°
2026-05-07 19:34 59.63311 17.95161 123 ft 13 kts 220°
2026-05-07 19:34 59.63251 17.95042 122 ft 12 kts 235°
2026-05-07 19:35 59.63249 17.94953 125 ft 5 kts 298°
2026-05-07 19:35 59.63289 17.94916 124 ft 9 kts 353°
2026-05-07 19:35 59.63373 17.94935 123 ft 14 kts 10°
2026-05-07 19:35 59.63486 17.94976 118 ft 19 kts 11°
2026-05-07 19:36 59.63618 17.95024 118 ft 20 kts 10°
2026-05-07 19:36 59.63752 17.95073 113 ft 21 kts 10°
2026-05-07 19:36 59.63874 17.95118 111 ft 18 kts 10°
2026-05-07 19:36 59.64003 17.95164 110 ft 19 kts 11°
2026-05-07 19:37 59.64133 17.95211 108 ft 19 kts 10°
2026-05-07 19:37 59.64257 17.95256 110 ft 16 kts 11°
2026-05-07 19:37 59.64375 17.95299 109 ft 18 kts 10°
2026-05-07 19:37 59.64504 17.95345 109 ft 19 kts 10°
2026-05-07 19:38 59.64631 17.95393 108 ft 19 kts 11°
2026-05-07 19:38 59.64759 17.95440 110 ft 18 kts 11°
2026-05-07 19:38 59.64886 17.95486 110 ft 19 kts 11°
2026-05-07 19:38 59.65014 17.95516 115 ft 18 kts 359°
2026-05-07 19:39 59.65132 17.95471 118 ft 17 kts 345°
2026-05-07 19:39 59.65241 17.95413 124 ft 16 kts 345°
2026-05-07 19:39 59.65344 17.95357 127 ft 15 kts 345°
2026-05-07 19:39 59.65452 17.95300 130 ft 17 kts 345°
2026-05-07 19:40 59.65569 17.95238 125 ft 16 kts 345°
2026-05-07 19:40 59.65675 17.95182 127 ft 15 kts 345°
2026-05-07 19:40 59.65744 17.95028 129 ft 18 kts 273°
2026-05-07 19:40 59.65718 17.94773 123 ft 19 kts 256°
2026-05-07 19:41 59.65686 17.94520 124 ft 19 kts 256°
2026-05-07 19:41 59.65655 17.94276 126 ft 19 kts 256°
2026-05-07 19:41 59.65619 17.93993 120 ft 22 kts 256°
2026-05-07 19:41 59.65585 17.93718 112 ft 21 kts 256°
2026-05-07 19:42 59.65553 17.93468 114 ft 17 kts 256°
2026-05-07 19:42 59.65525 17.93246 114 ft 16 kts 256°
2026-05-07 19:42 59.65495 17.93018 112 ft 18 kts 252°
2026-05-07 19:42 59.65452 17.92784 112 ft 15 kts 244°
2026-05-07 19:43 59.65379 17.92696 114 ft 9 kts 169°
2026-05-07 19:43 59.65348 17.92766 112 ft 8 kts 112°
2026-05-07 19:43 59.65336 17.92861 114 ft 5 kts 100°
2026-05-07 19:43 59.65334 17.92888 114 ft 2 kts 100°
2026-05-07 19:44 59.65333 17.92898 113 ft 0 kts 100°